DW0359 Weather Reports


time (UTC)temp
F
wind
direction
speed
knots
gust
knots
rain 1hr
in
rain 24hr
in
rain mn
in
humidity
%
barometer
mb
20260504204558 81 192 3.5 13.0 0.00 0.00 0.00 50 1003.3
20260504203043 81 341 2.6 14.8 0.00 0.00 0.00 50 1003.2
20260504201542 81 265 3.5 12.2 0.00 0.00 0.00 51 1003.2
20260504200044 81 173 2.6 13.9 0.00 0.00 0.00 51 1003.3
20260504194541 80 198 3.5 10.4 0.00 0.00 0.00 52 1003.3
20260504193037 80 169 2.6 14.8 0.00 0.00 0.00 53 1003.4
20260504191543 79 240 4.3 13.9 0.00 0.00 0.00 51 1003.7
20260504190043 79 192 2.6 9.6 0.00 0.00 0.00 54 1004.0
20260504184555 78 277 0.0 9.6 0.00 0.00 0.00 56 1004.3
20260504183037 77 192 2.6 11.3 0.00 0.00 0.00 54 1004.3
20260504181545 77 103 3.5 9.6 0.00 0.00 0.00 52 1004.2
20260504180044 77 249 2.6 13.0 0.00 0.00 0.00 54 1004.5
20260504174545 76 105 2.6 7.8 0.00 0.00 0.00 56 1004.5
20260504173043 74 229 0.9 9.6 0.00 0.00 0.00 59 1004.6
20260504171545 73 138 2.6 7.8 0.00 0.00 0.00 60 1004.9
20260504160123 70 0 2.6 9.6 0.00 0.00 0.00 62 1005.4
20260504081546 63 0 0.0 2.6 0.00 0.00 0.00 71 1007.7
20260504044543 61 0 0.0 0.0 0.00 0.00 0.00 78 1009.0
20260504043055 62 0 0.0 0.0 0.00 0.00 0.00 77 1009.2
20260504041547 62 0 0.0 0.0 0.00 0.00 0.00 76 1009.3
20260504040052 63 0 0.0 0.0 0.00 0.00 0.00 76 1009.5
20260504034550 63 0 0.0 0.0 0.00 0.00 0.00 75 1009.8
20260504033043 64 0 0.0 0.0 0.00 0.00 0.00 75 1009.8
20260504031541 64 0 0.0 0.0 0.00 0.00 0.00 75 1009.9
20260504030047 64 0 0.0 0.9 0.00 0.00 0.00 76 1009.9
20260504024538 65 0 0.0 0.0 0.00 0.00 0.00 74 1009.7
20260504023043 66 0 0.0 0.0 0.00 0.00 0.00 72 1009.6
20260504021538 67 0 0.0 0.0 0.00 0.00 0.00 70 1009.5
20260504020057 68 0 0.0 0.0 0.00 0.00 0.00 65 1009.3
20260504014554 69 0 0.0 0.0 0.00 0.00 0.00 62 1009.4
20260504013058 71 0 0.0 0.0 0.00 0.00 0.00 58 1008.9
20260504011545 72 0 0.0 0.0 0.00 0.00 0.00 56 1009.1
20260504010045 74 0 0.0 0.0 0.00 0.00 0.00 52 1009.0
20260504004553 75 0 0.0 1.7 0.00 0.00 0.00 50 1009.1
20260504003040 76 0 0.0 2.6 0.00 0.00 0.00 48 1009.1
20260504001615 77 0 0.9 5.2 0.00 0.00 0.00 47 1009.2
20260504000045 77 280 0.9 7.0 0.00 0.00 0.00 47 1009.4
20260503234539 77 0 0.0 7.0 0.00 0.00 0.00 46 1009.2
20260503233041 77 0 2.6 7.0 0.00 0.00 0.00 45 1009.5
20260503231537 78 352 0.9 7.0 0.00 0.00 0.00 45 1009.6
20260503230105 77 258 1.7 10.4 0.00 0.00 0.00 45 1009.7
20260503224543 78 254 0.0 7.0 0.00 0.00 0.00 46 1009.6
20260503223039 78 159 2.6 8.7 0.00 0.00 0.00 46 1009.9
20260503221537 78 244 1.7 11.3 0.00 0.00 0.00 45 1009.9
20260503220049 78 226 2.6 7.8 0.00 0.00 0.00 44 1010.0
20260503214540 78 291 1.7 13.0 0.00 0.00 0.00 45 1010.0
20260503213037 78 307 1.7 11.3 0.00 0.00 0.00 43 1010.1
20260503211537 78 249 4.3 12.2 0.00 0.00 0.00 43 1010.4
20260503210045 78 350 3.5 11.3 0.00 0.00 0.00 44 1010.5